sat.trackr.live / text

‹ back to catalog

STARLINK-36257

NORAD 67903 · 2026-035AA

PAYLOAD ACTIVE UNKNOWN

§ Identity

Operator
Country
US
Launch date
2026-02-21
Launch site
AFWTR
Launch vehicle
Mass (kg)
RCS (m²)

Purposes: comms

External: N2YO · Heavens-Above · Gunter

§ Orbital elements

Epoch: 2026-05-25T01:55:48.601632Z

Period
93.91 min
Inclination
97.2852°
Eccentricity
0.0003212
Mean motion
15.33456499 rev/d
Perigee alt
463.3 km
Apogee alt
467.7 km
Semi-major
6,843.6 km
B*
5.1079e-4
RAAN
78.5848°
Arg perigee
97.8663°
Mean anomaly
262.2944°
Rev number
1,569

§ Raw data

STARLINK-362571 67903U 26035AA  26145.08042363  .00016459  00000+0  51079-3 0  99942 67903  97.2852  78.5848 0003212  97.8663 262.2944 15.33456499 15696

JSON: /api/v1/satellites/67903 · /tle

For live sub-satellite position, see the globe view (requires WebGL).

§ Visibility from observer

Set your observer location to see the next 7 days of passes ≥ 10°. The values pass through the URL so the page stays shareable.

No JS? Fill the form by hand. The geolocation button needs JavaScript.